Regional Weather Roundup
Issued by NWS

Home | Current Version | Previous Version | Text Only | Print | Product List | Glossary On
Versions: 1 2 3 4 5 6 7 8 9 10 11 12 13 14 15 16 17 18 19 20 21 22 23 24 25 26 27 28 29 30 31 32 33 34 35 36 37 38 39 40 41 42 43 44 45 46 47 48 49 50
000
ASUS45 KBOU 061307
RWRCO

WEATHER ROUNDUP FOR COLORADO
NATIONAL WEATHER SERVICE DENVER/BOULDER CO
600 AM MST FRI MAR 06 2015

NOTE: "FAIR" INDICATES FEW OR NO CLOUDS BELOW 12000 FEET WITH NO
SIGNIFICANT WEATHER AND/OR OBSTRUCTIONS TO VISIBILITY.

COZ001>005-013-030-031-061400-
...NORTHWEST COLORADO...

CITY           SKY/WX    TMP DP  RH WIND       PRES   REMARKS
CRAIG          PTCLDY    10   5  80 CALM      30.42R
HAYDEN         PTCLDY    12   5  73 E13       30.40S WCI  -3
MEEKER         CLEAR     19  12  74 E5        30.43R WCI  12
MOUNT WERNER   NOT AVBL
STEAMBOAT SPGS PTCLDY     6   3  88 CALM      30.42R
WALDEN         PTCLDY    19   9  63 SE7       30.34R WCI  10
$$

COZ006>008-011-061400-
...WEST CENTRAL VALLEYS...

CITY           SKY/WX    TMP DP  RH WIND       PRES   REMARKS
GRAND JUNCTION CLEAR     26  18  71 E9        30.43R WCI  17
MONTROSE       PTCLDY    22  13  68 S8        30.45R WCI  12
EAGLE          PTCLDY    16  12  86 CALM      30.48S
RIFLE          PTCLDY    21  16  81 CALM      30.46S
DELTA          PTCLDY    23  19  83 CALM      30.46R
NUCLA          PTCLDY    23  14  68 E6        30.45R WCI  16
$$

COZ017>023-064>068-061400-
...SOUTHWEST COLORADO...

CITY           SKY/WX    TMP DP  RH WIND       PRES   REMARKS
DURANGO        PTCLDY    13  10  88 E3        30.37R
CORTEZ         CLEAR     19  15  84 E3        30.38S
PAGOSA SPRINGS PTCLDY     9   8  95 CALM      30.37R
TELLURIDE      PTCLDY    19   5  54 SE9       30.39S WCI   8
WOLF CREEK PAS CLEAR     21  -8  27 N5        30.41S WCI  15
$$

COZ009-010-012-014-032>034-037-058>063-061400-
...CENTRAL COLORADO...

CITY           SKY/WX    TMP DP  RH WIND       PRES   REMARKS
ASPEN          CLEAR    N/A N/A N/A CALM      30.41R
BUENA VISTA    CLEAR     12   4  69 SW3       30.36R
COPPER MTN     PTCLDY    16   0  48 W10       30.34R WCI   3
BERTHOUD PASS  NOT AVBL
COTTONWOOD PAS CLEAR     28  -9  19 N6        30.33R WCI  22
GUNNISON       PTCLDY     0  -2  92 NE3       30.49R
KREMMLING      PTCLDY     5   1  85 CALM      30.45R
LEADVILLE      CLEAR      3  -6  66 NE12      30.34S WCI -13
SALIDA         CLEAR     24   5  43 NW13      30.42S WCI  13
SUNLIGHT       PTCLDY    19  10  68 W3          N/A
WILKERSON PASS PTCLDY    18  -6  35 NW7G17    30.34R WCI   8
$$

COZ069>075-061400-
...SAN LUIS VALLEY/SANGRE DE CRISTO MOUNTAINS...

CITY           SKY/WX    TMP DP  RH WIND       PRES   REMARKS
ALAMOSA        MOCLDY    11   7  84 SW5       30.40R WCI   3
LA VETA PASS   PTCLDY    19   1  45 S12       30.32R WCI   7
SAGUACHE       PTCLDY    19   7  58 NW21      30.39R WCI   3
$$

COZ035-036-038>040-061400-
...NORTHERN COLORADO FRONT RANGE...

CITY           SKY/WX    TMP DP  RH WIND       PRES   REMARKS
DENVER INTL AP PTCLDY    25  11  55 SW12      30.25R WCI  14
DMNS CITY PARK   N/A     26  13  58 S5        30.26S WCI  20
AURORA         PTCLDY    28   8  42 S9        30.26R WCI  19
FRONT RANGE AP NOT AVBL
ERIE MUNI ARPT PTCLDY    15  11  82 S7        30.26R WCI   6
BOULDER MUN AP PTCLDY    25  16  68 CALM      30.24S
CENTENNIAL     PTCLDY    25   8  48 S9        30.25R WCI  15
BROOMFIELD     MOCLDY    30   9  40 CALM      30.25R
FORT COLLINS   PTCLDY    21  12  68 CALM      30.27R
LONGMONT       PTCLDY    18  12  77 NW3       30.27S
$$

COZ041-046-047-076>085-087-088-061400-
...PIKES PEAK/PALMER DIVIDE AND SOUTHERN FOOTHILLS...

CITY           SKY/WX    TMP DP  RH WIND       PRES   REMARKS
COLO. SPRINGS  PTCLDY    23  10  57 NE8       30.27R WCI  14
A. F. ACADEMY  PTCLDY    20   4  48 N3        30.26R
ELLICOTT       NOT AVBL
FALCON         PTCLDY    20   5  53 W6        30.28R WCI  12
FORT CARSON    PTCLDY    23  11  61 N6        30.26R WCI  16
LIMON          PTCLDY     7   1  76 N7        30.27R WCI  -5
MONUMENT HILL  CLEAR     27   3  36 SW7       30.26R WCI  19
TRINIDAD       CLEAR     24  14  65 W12       30.29R WCI  13
$$

COZ042>045-048>051-090-091-061400-
...NORTHEAST COLORADO...

CITY           SKY/WX    TMP DP  RH WIND       PRES   REMARKS
GREELEY ARPT   PTCLDY    19  12  73 CALM      30.26S
AKRON          CLEAR     25  17  72 W13       30.24R WCI  14
BURLINGTON     CLEAR     25  17  72 W7        30.26R WCI  17
WRAY           CLEAR     23  20  87 W7        30.25S WCI  15
STERLING       CLEAR     19  18  93 S8        30.26R WCI   9
HOLYOKE        CLEAR     27  19  74 W10       30.24S WCI  17
FORT MORGAN    CLEAR     21  17  83 W10       30.26S WCI  10
$$

COZ086-089-092>099-061400-
...SOUTHEAST COLORADO...

CITY           SKY/WX    TMP DP  RH WIND       PRES   REMARKS
PUEBLO         CLEAR     19  16  88 CALM      30.29R
LA JUNTA       CLEAR     24  20  84 W6        30.31R WCI  17
LAMAR          CLEAR     23  20  88 W8        30.30R WCI  14
SPRINGFIELD      N/A     24  21  88 NW9       30.28S WCI  14
$$



USA.gov is the U.S. government's official web portal to all federal, state and local government web resources and services.